Regional Weather Roundup
Issued by NWS

Home | Current Version | Previous Version | Graphics & Text | Print | Product List | Glossary On
Versions: 1 2 3 4 5 6 7 8 9 10 11 12 13 14 15 16 17 18 19 20 21 22 23 24 25 26 27 28 29 30 31 32 33 34 35 36 37 38 39 40 41 42 43 44 45 46 47 48 49 50
000
ASUS43 KDTX 251810
RWRMI
MICHIGAN HOURLY REGIONAL WEATHER ROUNDUP
NATIONAL WEATHER SERVICE DETROIT/PONTIAC MI
200 PM EDT SAT MAR 25 2017

NOTE: "FAIR" INDICATES FEW OR NO CLOUDS BELOW 12,000 FEET WITH NO
SIGNIFICANT WEATHER AND/OR OBSTRUCTION TO VISIBILITY.

MIZ047>049-052>055-059>063-066>070-074>076-081>083-251900-
SOUTHEAST LOWER MICHIGAN

CITY           SKY/WX    TMP DP  RH WIND       PRES   REMARKS
ADRIAN         CLOUDY    47  42  83 E16       30.19S
6HR MIN TEMP:  45; 6HR MAX TEMP:  48;

ALMA           LGT RAIN  37  36  99 NE18G25   30.23F WCI  27
ANN ARBOR      CLOUDY    43  42  97 NE10      30.20S FOG
BAD AXE        CLOUDY    35  33  94 E12G21    30.32R WCI  27
6HR MIN TEMP:  34; 6HR MAX TEMP:  36;

CARO           LGT RAIN  37  36  95 E9        30.27S WCI  31
DETROIT CITY   CLOUDY    44  42  93 E14G20    30.24R
6HR MIN TEMP:  40; 6HR MAX TEMP:  44; 6HR PCP:  0.01;

DETROIT        CLOUDY    44  41  89 E9        30.23S FOG
6HR MIN TEMP:  42; 6HR MAX TEMP:  45; 6HR PCP:  0.01;

FLINT          LGT RAIN  40  38  93 E9        30.26R FOG     WCI  34
6HR MIN TEMP:  37; 6HR MAX TEMP:  40; 6HR PCP:  0.29;

GROSSE ILE     CLOUDY    44  41  90 NE8       30.22S
6HR MIN TEMP:  41; 6HR MAX TEMP:  44;

HILLSDALE      CLOUDY    46  43  87 E18       30.14S
HOWELL         CLOUDY    42  40  93 E9        30.21F
6HR MIN TEMP:  38; 6HR MAX TEMP:  42; 6HR PCP:  0.29;


CITY           SKY/WX    TMP DP  RH WIND       PRES   REMARKS
JACKSON        CLOUDY    44  41  89 E14       30.18S
6HR MIN TEMP:  41; 6HR MAX TEMP:  44; 6HR PCP:  0.16;

LAMBERTVILLE   CLOUDY    45  40  82 E12G22    30.20S
6HR MIN TEMP:  45; 6HR MAX TEMP:  48;

LANSING        CLOUDY    41  38  89 NE12      30.21S
6HR MIN TEMP:  37; 6HR MAX TEMP:  41; 6HR PCP:  0.29;

LAPEER         RAIN      39  38  97 E6        30.24F WCI  35
6HR MIN TEMP:  36; 6HR MAX TEMP:  39; 6HR PCP:  0.16;

MASON          CLOUDY    40  39  97 E8        30.20F WCI  35
MONROE         CLOUDY    45  42  91 E12G22    30.21R FOG
6HR MIN TEMP:  44; 6HR MAX TEMP:  46;

MT. CLEMENS    LGT RAIN  42  42 100 E8        30.22F FOG
6HR MIN TEMP:  38; 6HR MAX TEMP:  42; 6HR PCP:  0.27;

PONTIAC        LGT RAIN  41  39  93 E8        30.22R FOG
6HR MIN TEMP:  38; 6HR MAX TEMP:  41; 6HR PCP:  0.29;

PORT HOPE        N/A     34  32  92 NE18      30.30R WCI  23
6HR MIN TEMP:  34; 6HR MAX TEMP:  35; 6HR PCP:  0.03;

PORT HURON     RAIN      41  37  87 NE6       30.26R
TRI CITIES     LGT RAIN  37  36  96 NE16      30.28S FOG     WCI  28
6HR MIN TEMP:  35; 6HR MAX TEMP:  37; 6HR PCP:  0.09;

MIDLAND        DRIZZLE   36  33  92 NE13G22   30.28F WCI  27
6HR MIN TEMP:  36; 6HR MAX TEMP:  37;

TROY           DRIZZLE   42  40  90 E9        30.25F
SAGINAW HB     LGT RAIN  37  34  87 NE14      30.27R WCI  29
$$
MIZ043>046-050>051-056>058-064>065-071>073-077>080-251900-
SOUTHWEST LOWER MICHIGAN

CITY           SKY/WX    TMP DP  RH WIND       PRES   REMARKS
BATTLE CREEK   CLOUDY    42  40  92 E14       30.13F
6HR MIN TEMP:  40; 6HR MAX TEMP:  42; 6HR PCP:  0.22;

BENTON HARBOR  CLOUDY    49  45  86 E14G24    30.07R
6HR MIN TEMP:  46; 6HR MAX TEMP:  49; 6HR PCP:  0.32;

BIG RAPIDS     LGT SNOW  36  34  92 E13       30.21F WCI  27
6HR MIN TEMP:  35; 6HR MAX TEMP:  36;

COLDWATER      CLOUDY    50  46  86 E14       30.12S FOG
6HR MIN TEMP:  46; 6HR MAX TEMP:  50;

FREMONT        CLOUDY    38  37  93 E23       30.15F WCI  28
HOLLAND        LGT RAIN  42  39  89 E18G25    30.12S
6HR MIN TEMP:  39; 6HR MAX TEMP:  41; 6HR PCP:  0.17;

GRAND RAPIDS   LGT RAIN  40  38  93 E18       30.15F WCI  31
6HR MIN TEMP:  37; 6HR MAX TEMP:  40; 6HR PCP:  0.12;

IONIA          LGT RAIN  38  37  95 E22       30.17F WCI  28
6HR MIN TEMP:  35; 6HR MAX TEMP:  38; 6HR PCP:  0.10;

KALAMAZOO      CLOUDY    44  39  82 E5        30.14R
6HR MIN TEMP:  42; 6HR MAX TEMP:  44; 6HR PCP:  0.17;

LUDINGTON      CLOUDY    40  36  85 E20G26    30.17F WCI  31
6HR MIN TEMP:  37; 6HR MAX TEMP:  40;

MARSHALL       CLOUDY    43  42  97 E9        30.15S
6HR MIN TEMP:  41; 6HR MAX TEMP:  43; 6HR PCP:  0.06;

MOUNT PLEASANT LGT SNOW  36  34  92 E12G21    30.28R WCI  27
6HR MIN TEMP:  35; 6HR MAX TEMP:  36; 6HR PCP:  0.01;

MUSKEGON       CLOUDY    42  38  85 E15G23    30.13F
6HR MIN TEMP:  40; 6HR MAX TEMP:  42; 6HR PCP:  0.01;

SOUTH HAVEN    CLOUDY    42  41  96 E14G20    30.09S
$$
MIZ016>042-251900-
NORTHERN LOWER MICHIGAN

CITY           SKY/WX    TMP DP  RH WIND       PRES   REMARKS
ALPENA         CLOUDY    36  30  79 E13       30.37F WCI  27
6HR MIN TEMP:  33; 6HR MAX TEMP:  36;

BEAVER ISLAND  CLOUDY    35  31  83 E15G24    30.33F WCI  26
6HR MIN TEMP:  32; 6HR MAX TEMP:  35;

BELLAIRE       CLOUDY    38  32  77 E7G18     30.30S WCI  33
6HR MIN TEMP:  36; 6HR MAX TEMP:  38;

CADILLAC       CLOUDY    35  33  90 E15G23    30.23R WCI  25
CHARLEVOIX     CLOUDY    37  32  79 E13       30.33F WCI  29
6HR MIN TEMP:  34; 6HR MAX TEMP:  38;

FRANKFORT      CLOUDY    40  33  76 E10G16    30.24R WCI  34
GAYLORD        CLOUDY    35  29  78 E6G22     30.29R WCI  30
6HR MIN TEMP:  33; 6HR MAX TEMP:  35; 6HR PCP: TRACE;

GRAYLING       CLOUDY    34  32  93 E15       30.29S WCI  24
HARBOR SPRINGS CLOUDY    36  30  79 E16       30.32F WCI  26
HOUGHTON LAKE  CLOUDY    35  31  85 E14       30.29R WCI  26
6HR MIN TEMP:  33; 6HR MAX TEMP:  35; 6HR PCP: TRACE;

MANISTEE       CLOUDY    42  35  76 E21G26    30.19F
OSCODA         CLOUDY    35  32  89 NE17      30.34R WCI  24
6HR MIN TEMP:  34; 6HR MAX TEMP:  35;

PELLSTON       CLOUDY    35  27  72 E16       30.34F WCI  25
6HR MIN TEMP:  33; 6HR MAX TEMP:  36;

ROGERS CITY    CLOUDY    34  28  78 E13         N/A  WCI  25
TRAVERSE CITY  CLOUDY    40  33  76 E14       30.27R WCI  32
6HR MIN TEMP:  36; 6HR MAX TEMP:  40;

$$
MIZ007>008-015-251900-
EASTERN UPPER MICHIGAN

CITY           SKY/WX    TMP DP  RH WIND       PRES   REMARKS
KINROSS        FAIR      35  25  66 SE15      30.36F WCI  25
6HR MIN TEMP:  30; 6HR MAX TEMP:  36;

MACKINAC ISLAN CLOUDY    32  28  83 E13G18    30.36S WCI  23
6HR MIN TEMP:  31; 6HR MAX TEMP:  32;

NEWBERRY       CLOUDY    38  28  67 E12       30.33S WCI  31
6HR MIN TEMP:  30; 6HR MAX TEMP:  39;

S. S. MARIE    FAIR      38  22  52 E10       30.36F WCI  31
6HR MIN TEMP:  30; 6HR MAX TEMP:  38;

MUNISING         N/A     34  30  85 N5        30.33S WCI  30
6HR MIN TEMP:  33; 6HR MAX TEMP:  34;

$$
MIZ004>006-011>014-085-251900-
CENTRAL UPPER MICHIGAN

CITY           SKY/WX    TMP DP  RH WIND       PRES   REMARKS
MANISTIQUE     PTSUNNY   36  32  87 E14G21    30.33F WCI  27
ESCANABA       CLOUDY    36  30  79 E15       30.33S WCI  27
6HR MIN TEMP:  34; 6HR MAX TEMP:  36;

MENOMINEE        N/A    N/A N/A N/A MISG        N/A
SAWYER-GWINN   CLOUDY    34  30  86 N7        30.30F WCI  28
$$
MIZ001>003-009>011-084-251900-
WESTERN UPPER MICHIGAN

CITY           SKY/WX    TMP DP  RH WIND       PRES   REMARKS
IRON MOUNTAIN  CLOUDY    37  29  72 E12       30.27S WCI  29
6HR MIN TEMP:  33; 6HR MAX TEMP:  37;

HOUGHTON       CLOUDY    32  25  75 E10       30.32F WCI  24
6HR MIN TEMP:  30; 6HR MAX TEMP:  32;

COPPER HARBOR    N/A     32  25  75 E9G17     30.37S WCI  24
6HR MIN TEMP:  29; 6HR MAX TEMP:  32;

IRONWOOD       CLOUDY    36  30  79 E12       30.25F WCI  28
6HR MIN TEMP:  32; 6HR MAX TEMP:  36;

$$

ABBREVIATIONS USED IN REMARKS
   TC - TEMPERATURE IN CELSIUS
  WCI - WIND CHILL INDEX
   HX - HEAT INDEX
  VSB - VISIBILITY





USA.gov is the U.S. government's official web portal to all federal, state and local government web resources and services.